NOAA 16 DEB, 42340

Orbit data source: Space-Track

NOAA 16 DEB, 42340 is space debris in SSO originally from a launch on Thu, 21 Sep 2000 UTC launched from the Air Force Western Test Range (AFWTR). Debris objects in space refer to the collection of defunct objects orbiting the Earth. Examples of debris include non-operational satellites, rocket bodies, and fragments generated from explosions, collisions, or faulty payload assembly.

Loading next visibility...
Identifier
42340, 2000-055QG
Orbit
SSO
Country
Flag of USUS
Related business
Manufacturer
Unknown
Mission
Spacecraft
Bus & Motor
Unknown
Mass
Unknown
Launch date (UTC)
2000-09-21 (26 years ago)
Launch vehicle
Unknown
Launch site
Air Force Western Test Range (AFWTR)
Object type
Payload
Rocket body
Debris
Shape & HBR
Unknown shape, 0.1 m
Radar Cross Section
Medium (>0.1 m² and <1 m²)

Expand to show TLE details & history
Last TLE update: 5 days ago

TLE from 5 days ago
0 NOAA 16 DEB
1 42340U 00055QG  26167.20535322  .00009097  00000-0  23852-2 0  9994
2 42340  99.0199 332.9780 0023690 240.0014 119.8826 14.49310650531888
Epoch: 2026-06-16T04:55Z
TLE epoch observation values (Epoch: 2026-06-16T04:55:42.518Z)
Latitude
-0.00006°
Longitude
-5.42988°
Altitude
739.264 km
Speed
7.481 km/s
True Right ascension
22h 11m 54s
True Declination
0° 00' 00"
Sunlit
Object was in daylight at epoch
Visualization orbit readout
Latitude
Unknown
Longitude
Unknown
Altitude
Unknown
Speed
Unknown
Apparent Right ascension
Unknown
Apparent Declination
Unknown
Sunlit
N/A
Visualization observer readout
Local Sidereal Time
16:04:05
Azimuth
Unknown
Elevation
Unknown
Doppler factor
Unknown
Orbital elements
Apogee altitude
741.863 km
Perigee altitude
708.208 km
Semi-major axis
7,103.173 km
Eccentricity
0.00237
Inclination
99.0199°
RAAN
332.978°
Arg. of periapsis
240.0014°
True anomaly
120.11763°
Mean anomaly
119.8826°
Eccentric anomaly
120.00015°
Mean motion
3.62547 °/min
Orbital period
99.3 mins
BSTAR
0.0023852
Loading maneuver chart data...
Computing Atmospheric mass density...
Loading historical data...
Loading historical data...
Loading historical data...
Loading historical data...
Loading historical data...
Loading historical data...
Loading historical data...

Documentation

Showing up to 5 results
|